カタログに戻る

SUPERVIEW NEO-1 04

運用中科学SSO
NORAD 63126·PAYLOAD·🇨🇳 China

打ち上げ Feb 27, 2025 から Jiuquan Satellite Launch Center

Loading…

次のパス (今後24時間)

TLE

最新Source: Space-Track

元期: Sep 14, 2026, 23:13 UTC

1 63126U 25040B   26257.96742235  .00007727  00000-0  34468-3 0  9990
2 63126  97.3595  10.4522 0001063  38.7429 321.3884 15.21666135 85845

AllMySatでSUPERVIEW NEO-1 04をリアルタイム追跡

Download on the App Store